This is the latest recevied weather packets stored in our database for station/object AE5EW. If no packets are shown the sender has not sent any weather packets the latest 10 day(s).
| Time | Temp. | Humidity | Pressure | Rain* | Wind** | Luminosity | Snow |
|---|---|---|---|---|---|---|---|
| 1787514668 | 32.78° C | 63% | 1016 hPa | 0 mm | - | - | - |
| 1787514368 | 32.78° C | 65% | 1016.2 hPa | 0 mm | - | - | - |
| 1787514067 | 32.78° C | 65% | 1016.2 hPa | 0 mm | - | - | - |
| 1787513763 | 32.22° C | 64% | 1016 hPa | 0 mm | - | - | - |
| 1787513459 | 32.22° C | 64% | 1016 hPa | 0 mm | - | - | - |
| 1787513154 | 32.22° C | 59% | 1016.2 hPa | 0 mm | - | - | - |
| 1787512851 | 32.78° C | 65% | 1016.4 hPa | 0 mm | - | - | - |
| 1787512546 | 33.89° C | 61% | 1016.6 hPa | 0 mm | - | - | - |
| 1787512242 | 33.33° C | 59% | 1016.5 hPa | 0 mm | - | - | - |
| 1787511937 | 33.33° C | 63% | 1016.7 hPa | 0 mm | - | - | - |
| 1787511632 | 33.33° C | 58% | 1016.6 hPa | 0 mm | - | - | - |
| 1787511331 | 33.33° C | 58% | 1016.6 hPa | 0 mm | - | - | - |
| 1787511026 | 33.89° C | 58% | 1016.6 hPa | 0 mm | - | - | - |
| 1787510720 | 34.44° C | 56% | 1016.8 hPa | 0 mm | - | - | - |
| 1787510416 | 34.44° C | 54% | 1016.8 hPa | 0 mm | - | - | - |
| 1787510111 | 33.89° C | 55% | 1016.8 hPa | 0 mm | - | - | - |
| 1787509808 | 34.44° C | 55% | 1016.9 hPa | 0 mm | - | - | - |
| 1787509503 | 34.44° C | 58% | 1016.9 hPa | 0 mm | - | - | - |
| 1787509199 | 33.89° C | 58% | 1017.2 hPa | 0 mm | - | - | - |
| 1787508894 | 33.89° C | 56% | 1017.2 hPa | 0 mm | - | - | - |
| 1787508590 | 33.89° C | 56% | 1017.3 hPa | 0 mm | - | - | - |
| 1787508285 | 33.89° C | 54% | 1017.5 hPa | 0 mm | - | - | - |
| 1787507981 | 33.89° C | 55% | 1017.4 hPa | 0 mm | - | - | - |
| 1787507678 | 34.44° C | 54% | 1017.4 hPa | 0 mm | - | - | - |
| 1787507373 | 33.33° C | 54% | 1017.5 hPa | 0 mm | - | - | - |
* Rain latest hour (hover to see other rain measurements)
** Current wind speed in m/s (hover to see current wind gust speed)